Other Public Products
Issued by NWS Charleston, SC

Current Version | Previous Version | Text Only | Print | Product List | Glossary Off
Versions: 1 2 3 4 5 6 7 8 9 10 11 12 13 14 15 16 17 18 19 20 21 22 23 24 25 26 27 28 29 30 31 32 33 34 35 36 37 38 39 40 41 42 43 44 45 46 47 48 49 50

729
FPUS82 KCHS 211512
OPUCHS

TEST...KCHS/KSAV Gateway Observations...TEST
National Weather Service Charleston SC
1100 AM EDT FRI JUL 21 2017

NOTE: "fair" indicates few or no clouds below 12,000 feet with no
significant weather and/or obstructions to visibility.

SCZ050-WAZ558-NCZ071-TXZ119-213-PAZ071-DCZ001-FLZ074-172-MI076-
NYZ176-178-MAZ016-IL014-TNZ027-NJZ106-GAZ044-MD014-211600-

...Gateway Observations for Charleston International...

CITY           SKY/WX    TMP DP  RH WIND       PRES   REMARKS
Chas Airport   MOSUNNY   86  72  62 SW6       30.06S HX  92
Seattle        PTSUNNY   59  54  83 W3        30.16R
Charlotte      MOSUNNY   90  70  51 N5        30.06F HX  95
Dallas DFW     MOSUNNY   90  71  53 S9        30.02S HX  96
Dallas Love    MOSUNNY   89  70  53 SW7       30.03S HX  94
Philladelphia  MOSUNNY   88  69  53 NW7       29.94F HX  92
Wash National  MOSUNNY   92  71  50 N3        29.96F HX  98
Baltimore      MOSUNNY   90  71  53 VRB3      29.94F HX  96
Miami          PTSUNNY   92  76  59 E9        30.08S HX 104
Detroit        CLOUDY    83  69  62 VRB3      30.00S
Newark         MOSUNNY   87  68  52 NW8       29.91F HX  90
Laguardia      MOSUNNY   85  68  56 NW12      29.91F
J F K          MOSUNNY   88  68  51 N12       29.92S HX  91
Boston Logan   MOSUNNY   83  58  42 W13       29.85F
Ft. Lauderdale PTSUNNY   88  77  69 SE13      30.07S HX 100
Chicago O`Hare CLOUDY    83  70  64 S8        29.99R
Chicago Midway CLOUDY    83  70  64 S6        29.99S
Houston Bush   PTSUNNY   87  76  69 W5        30.06S HX  97
Houston Hobby  MOSUNNY   89  76  65 W7        30.05F HX 100
Nashville      CLOUDY    90  74  59 CALM      30.08F HX  99
Atlanta        MOSUNNY   86  73  65 SW3       30.08S HX  93

$$

GAZ044-118-TXZ119-213-NCZ071-DCZ001-MDZ014-506-PAZ021-071-NJZ106-
NYZ176-178-MAZ106-OHZ011-021-055-MIZ076-KYZ091-ILZ014-INZ047-
MNZ060-ONZ431-211600-

...Gateway Observations for Savannah International...

CITY           SKY/WX    TMP DP  RH WIND       PRES   REMARKS
Savannah Arpt  MOSUNNY   88  73  61 CALM      30.07S HX  95
Atlanta        MOSUNNY   86  73  65 SW3       30.08S HX  93
Charlotte      MOSUNNY   90  70  51 N5        30.06F HX  95
Dallas DFW     MOSUNNY   90  71  53 S9        30.02S HX  96
Houston Bush   PTSUNNY   87  76  69 W5        30.06S HX  97
Wash National  MOSUNNY   92  71  50 N3        29.96F HX  98
Wash Dulles    PTSUNNY   87  70  56 CALM      29.97F HX  92
Baltimore      MOSUNNY   90  71  53 VRB3      29.94F HX  96
Philadelphia   MOSUNNY   88  69  53 NW7       29.94F HX  92
Newark         MOSUNNY   87  68  52 NW8       29.91F HX  90
Laguardia      MOSUNNY   85  68  56 NW12      29.91F
J F K          MOSUNNY   88  68  51 N12       29.92S HX  91
Boston         MOSUNNY   83  58  42 W13       29.85F
Pittsburg      CLOUDY    82  71  69 CALM      30.00F
Akron          PTSUNNY   83  71  67 SE3       30.01S
Cleveland      PTSUNNY   84  73  69 NE5       30.01S HX  90
Cincinnati     CLOUDY    74  74 100 S8        30.03F
Columbus       TSTM      71  71  99 CALM      30.00S
Detroit        CLOUDY    83  69  62 VRB3      30.00S
Chicago O`Hare CLOUDY    83  70  64 S8        29.99R
Minneapolis    CLOUDY    73  66  78 SE8       29.92F
Indianapolis   PTSUNNY   79  71  76 SE9       30.01S
Toronto Canada PTSUNNY   81  64  57 NW13G20   29.94S

$$




USA.gov is the U.S. government's official web portal to all federal, state and local government web resources and services.